Location: Cul de Sac
(18.0387°N, 63.0654°W)
Time: 09:31:57
(UTC+00:00)

Tianhe-1 - Visible Passes

Search period start: 25 June 2021 00:00
Search period end: 05 July 2021 00:00
Orbit: 375 x 385 km, 41.5° (Epoch: 25 June)

Date Brightness Start Highest point End Pass type
(mag) Time Alt. Az. Time Alt. Az. Time Alt. Az.
30 Jun 4.2 08:34:33 10° N 08:36:33 16° NE 08:38:33 10° ENE visible
30 Jun 2.5 23:23:39 10° S 23:25:56 19° SE 23:28:13 10° E visible
01 Jul 4.0 00:59:59 10° W 01:00:54 16° WNW 01:00:54 16° WNW visible
01 Jul 1.1 09:08:58 10° NW 09:12:06 86° NE 09:15:14 10° SE visible
01 Jul 1.6 23:58:13 10° WSW 00:01:15 59° NW 00:04:18 10° NE visible
02 Jul 3.0 08:08:01 10° NNW 08:10:51 31° NE 08:13:40 10° ESE visible
03 Jul 4.4 00:35:32 10° WNW 00:36:50 12° NNW 00:38:08 10° N visible
03 Jul 1.6 08:44:14 17° WNW 08:46:13 35° SW 08:49:07 10° SSE visible
03 Jul 3.5 23:32:47 10° W 23:35:25 25° NW 23:38:03 10° NNE visible
